Location: Geelbroek
(52.9503°N, 6.5712°E)
Time: 20:48:46
(UTC+00:00)

Cosmos 1655 Rocket - Pass Details

Date: 15 May 2026
Orbit: 970 x 1005 km, 83.0° (Epoch: 8 June)

Event Time Altitude Azimuth Distance (km) Brightness Sun altitude
Rises 23:11:46 0° 350° (N) 3,678 8.7 -17.9°
Reaches altitude 10° 23:14:18 10° 353° (N) 2,729 7.6 -17.9°
Maximum altitude 23:20:32 66° 76° (ENE) 1,060 4.2 -18.0°
Enters shadow 23:24:16 25° 153° (SSE) 1,849 4.9 -18.0°
